Time,TemperatureF,DewpointF,PressureIn,WindDirection,WindDirectionDegrees,WindSpeedMPH,WindSpeedGustMPH,Humidity,HourlyPrecipIn,Conditions,Clouds,dailyrainin,SoftwareType,DateUTC
2014-01-18 00:08:00,28.7,27.0,29.84,West,277,3.0,15.0,92,0.00,,,0.00,weatherlink.com 1.10,2014-01-18 05:08:00,
2014-01-18 00:23:00,27.3,25.0,29.84,SW,228,11.0,14.0,92,0.00,,,0.00,weatherlink.com 1.10,2014-01-18 05:23:00,
2014-01-18 00:38:00,26.2,24.0,29.84,West,262,2.0,15.0,92,0.00,,,0.00,weatherlink.com 1.10,2014-01-18 05:38:00,
2014-01-18 00:53:00,25.7,24.0,29.84,South,174,3.0,16.0,92,0.00,,,0.00,weatherlink.com 1.10,2014-01-18 05:53:00,
2014-01-18 01:08:00,24.9,23.0,29.84,SSW,202,2.0,14.0,92,0.00,,,0.00,weatherlink.com 1.10,2014-01-18 06:08:00,
2014-01-18 01:23:00,23.9,22.0,29.85,WSW,238,3.0,18.0,91,0.00,,,0.00,weatherlink.com 1.10,2014-01-18 06:23:00,
2014-01-18 01:38:00,23.5,21.0,29.86,WSW,241,8.0,15.0,90,0.00,,,0.00,weatherlink.com 1.10,2014-01-18 06:38:00,
2014-01-18 01:53:00,23.0,21.0,29.86,SW,224,10.0,13.0,90,0.00,,,0.00,weatherlink.com 1.10,2014-01-18 06:53:00,
2014-01-18 02:08:00,22.8,21.0,29.86,West,263,4.0,16.0,91,0.00,,,0.00,weatherlink.com 1.10,2014-01-18 07:08:00,
2014-01-18 02:23:00,22.4,20.0,29.87,SSW,193,2.0,15.0,91,0.00,,,0.00,weatherlink.com 1.10,2014-01-18 07:23:00,
2014-01-18 02:38:00,22.0,20.0,29.88,SW,221,1.0,15.0,90,0.00,,,0.00,weatherlink.com 1.10,2014-01-18 07:38:00,
2014-01-18 02:53:00,21.7,19.0,29.88,SW,232,12.0,18.0,89,0.00,,,0.00,weatherlink.com 1.10,2014-01-18 07:53:00,
2014-01-18 03:08:00,21.5,19.0,29.87,WSW,248,4.0,15.0,89,0.00,,,0.00,weatherlink.com 1.10,2014-01-18 08:08:00,
2014-01-18 03:23:00,21.2,19.0,29.88,WSW,248,7.0,15.0,90,0.00,,,0.00,weatherlink.com 1.10,2014-01-18 08:23:00,
2014-01-18 03:38:00,21.1,19.0,29.88,SW,218,10.0,19.0,90,0.00,,,0.00,weatherlink.com 1.10,2014-01-18 08:38:00,
2014-01-18 03:53:00,20.8,18.0,29.88,West,276,11.0,16.0,90,0.00,,,0.00,weatherlink.com 1.10,2014-01-18 08:53:00,
2014-01-18 04:08:00,20.6,18.0,29.88,SW,230,3.0,16.0,90,0.00,,,0.00,weatherlink.com 1.10,2014-01-18 09:08:00,
2014-01-18 04:24:00,20.5,18.0,29.88,SSW,194,1.0,14.0,90,0.00,,,0.00,weatherlink.com 1.10,2014-01-18 09:24:00,
2014-01-18 04:39:00,20.4,18.0,29.88,WNW,284,6.0,15.0,89,0.00,,,0.00,weatherlink.com 1.10,2014-01-18 09:39:00,
2014-01-18 04:54:00,20.5,18.0,29.88,WNW,293,2.0,15.0,89,0.00,,,0.00,weatherlink.com 1.10,2014-01-18 09:54:00,
2014-01-18 05:09:00,20.6,18.0,29.88,SW,233,5.0,14.0,89,0.00,,,0.00,weatherlink.com 1.10,2014-01-18 10:09:00,
2014-01-18 05:24:00,20.3,18.0,29.88,WNW,290,1.0,15.0,89,0.00,,,0.00,weatherlink.com 1.10,2014-01-18 10:24:00,
2014-01-18 05:39:00,20.0,18.0,29.88,West,268,7.0,13.0,90,0.00,,,0.00,weatherlink.com 1.10,2014-01-18 10:39:00,
2014-01-18 05:54:00,19.6,17.0,29.88,WSW,256,12.0,13.0,90,0.00,,,0.00,weatherlink.com 1.10,2014-01-18 10:54:00,
2014-01-18 06:09:00,19.3,17.0,29.89,SW,216,6.0,16.0,90,0.00,,,0.00,weatherlink.com 1.10,2014-01-18 11:09:00,
2014-01-18 06:24:00,19.2,17.0,29.89,West,264,11.0,12.0,91,0.00,,,0.00,weatherlink.com 1.10,2014-01-18 11:24:00,
2014-01-18 06:39:00,18.8,16.0,29.89,WSW,257,9.0,16.0,90,0.00,,,0.00,weatherlink.com 1.10,2014-01-18 11:39:00,
2014-01-18 06:54:00,18.7,17.0,29.89,SSW,209,4.0,15.0,91,0.00,,,0.00,weatherlink.com 1.10,2014-01-18 11:54:00,
2014-01-18 07:09:00,18.6,16.0,29.89,SW,236,13.0,17.0,90,0.00,,,0.00,weatherlink.com 1.10,2014-01-18 12:09:00,
2014-01-18 07:24:00,18.6,16.0,29.89,WSW,243,8.0,15.0,90,0.00,,,0.00,weatherlink.com 1.10,2014-01-18 12:24:00,
2014-01-18 07:39:00,18.6,16.0,29.90,SSW,212,8.0,17.0,90,0.00,,,0.00,weatherlink.com 1.10,2014-01-18 12:39:00,
2014-01-18 07:54:00,18.5,16.0,29.90,West,268,2.0,12.0,90,0.00,,,0.00,weatherlink.com 1.10,2014-01-18 12:54:00,
2014-01-18 08:09:00,18.4,16.0,29.91,West,259,2.0,13.0,91,0.00,,,0.00,weatherlink.com 1.10,2014-01-18 13:09:00,
2014-01-18 08:24:00,18.2,16.0,29.91,WSW,251,7.0,11.0,90,0.00,,,0.00,weatherlink.com 1.10,2014-01-18 13:24:00,
2014-01-18 08:39:00,18.3,16.0,29.91,West,262,11.0,15.0,90,0.00,,,0.00,weatherlink.com 1.10,2014-01-18 13:39:00,
2014-01-18 08:54:00,18.4,16.0,29.92,WSW,258,2.0,14.0,90,0.00,,,0.00,weatherlink.com 1.10,2014-01-18 13:54:00,
2014-01-18 09:09:00,18.5,16.0,29.92,SSW,208,5.0,16.0,91,0.00,,,0.00,weatherlink.com 1.10,2014-01-18 14:09:00,
2014-01-18 09:24:00,18.7,17.0,29.92,SE,141,3.0,10.0,91,0.00,,,0.00,weatherlink.com 1.10,2014-01-18 14:24:00,
2014-01-18 09:39:00,19.1,17.0,29.92,West,269,4.0,14.0,90,0.00,,,0.00,weatherlink.com 1.10,2014-01-18 14:39:00,
2014-01-18 09:54:00,19.3,17.0,29.93,SW,223,8.0,11.0,90,0.00,,,0.00,weatherlink.com 1.10,2014-01-18 14:54:00,
2014-01-18 10:09:00,18.6,16.0,29.93,WSW,248,3.0,13.0,89,0.00,,,0.00,weatherlink.com 1.10,2014-01-18 15:09:00,
2014-01-18 10:24:00,18.8,16.0,29.94,West,278,4.0,12.0,89,0.00,,,0.00,weatherlink.com 1.10,2014-01-18 15:24:00,
2014-01-18 10:39:00,19.2,17.0,29.93,SW,231,1.0,13.0,89,0.00,,,0.00,weatherlink.com 1.10,2014-01-18 15:39:00,
2014-01-18 10:54:00,19.0,16.0,29.94,WSW,257,9.0,12.0,88,0.00,,,0.00,weatherlink.com 1.10,2014-01-18 15:54:00,
2014-01-18 11:09:00,19.2,17.0,29.93,SSE,167,4.0,12.0,89,0.00,,,0.00,weatherlink.com 1.10,2014-01-18 16:09:00,
2014-01-18 11:24:00,19.8,17.0,29.93,WSW,249,1.0,13.0,89,0.00,,,0.00,weatherlink.com 1.10,2014-01-18 16:24:00,
2014-01-18 11:39:00,20.7,18.0,29.93,West,281,1.0,14.0,88,0.00,,,0.00,weatherlink.com 1.10,2014-01-18 16:39:00,
2014-01-18 11:54:00,21.5,18.0,29.93,SW,226,2.0,13.0,86,0.00,,,0.00,weatherlink.com 1.10,2014-01-18 16:54:00,
2014-01-18 12:09:00,21.5,17.0,29.92,South,169,1.0,15.0,84,0.00,,,0.00,weatherlink.com 1.10,2014-01-18 17:09:00,
2014-01-18 12:24:00,21.6,18.0,29.91,WSW,250,9.0,13.0,85,0.00,,,0.00,weatherlink.com 1.10,2014-01-18 17:24:00,
2014-01-18 12:39:00,21.4,18.0,29.91,West,278,5.0,13.0,85,0.00,,,0.00,weatherlink.com 1.10,2014-01-18 17:39:00,
2014-01-18 12:54:00,20.7,17.0,29.91,WSW,242,5.0,18.0,85,0.00,,,0.00,weatherlink.com 1.10,2014-01-18 17:54:00,
2014-01-18 13:09:00,20.8,17.0,29.91,SW,230,5.0,19.0,84,0.00,,,0.00,weatherlink.com 1.10,2014-01-18 18:09:00,
2014-01-18 13:24:00,20.6,16.0,29.91,WSW,243,5.0,14.0,83,0.00,,,0.00,weatherlink.com 1.10,2014-01-18 18:24:00,
2014-01-18 13:39:00,20.4,16.0,29.91,WSW,252,10.0,16.0,83,0.00,,,0.00,weatherlink.com 1.10,2014-01-18 18:39:00,
2014-01-18 13:54:00,20.3,16.0,29.91,South,186,6.0,15.0,82,0.00,,,0.00,weatherlink.com 1.10,2014-01-18 18:54:00,
2014-01-18 14:09:00,20.3,16.0,29.91,West,270,8.0,13.0,83,0.00,,,0.00,weatherlink.com 1.10,2014-01-18 19:09:00,
2014-01-18 14:24:00,20.5,16.0,29.91,WNW,282,5.0,17.0,81,0.00,,,0.00,weatherlink.com 1.10,2014-01-18 19:24:00,
2014-01-18 14:39:00,20.4,15.0,29.92,WNW,290,6.0,17.0,81,0.00,,,0.00,weatherlink.com 1.10,2014-01-18 19:39:00,
2014-01-18 14:54:00,20.6,15.0,29.92,SW,227,9.0,13.0,80,0.00,,,0.00,weatherlink.com 1.10,2014-01-18 19:54:00,
2014-01-18 15:10:00,20.4,15.0,29.93,West,266,16.0,18.0,80,0.00,,,0.00,weatherlink.com 1.10,2014-01-18 20:10:00,
2014-01-18 15:25:00,20.1,15.0,29.93,West,265,7.0,15.0,79,0.00,,,0.00,weatherlink.com 1.10,2014-01-18 20:25:00,
2014-01-18 15:40:00,19.9,15.0,29.94,WSW,258,5.0,11.0,80,0.00,,,0.00,weatherlink.com 1.10,2014-01-18 20:40:00,
2014-01-18 15:55:00,19.8,15.0,29.94,WSW,257,4.0,12.0,81,0.00,,,0.00,weatherlink.com 1.10,2014-01-18 20:55:00,
2014-01-18 16:10:00,19.6,15.0,29.94,WSW,246,8.0,12.0,81,0.00,,,0.00,weatherlink.com 1.10,2014-01-18 21:10:00,
2014-01-18 16:25:00,19.5,15.0,29.95,WSW,245,0.0,7.0,81,0.00,,,0.00,weatherlink.com 1.10,2014-01-18 21:25:00,
2014-01-18 16:40:00,19.2,14.0,29.94,SW,236,2.0,17.0,81,0.00,,,0.00,weatherlink.com 1.10,2014-01-18 21:40:00,
2014-01-18 16:55:00,18.8,14.0,29.94,SW,235,2.0,12.0,82,0.00,,,0.00,weatherlink.com 1.10,2014-01-18 21:55:00,
2014-01-18 17:10:00,18.6,14.0,29.95,West,264,5.0,12.0,82,0.00,,,0.00,weatherlink.com 1.10,2014-01-18 22:10:00,
2014-01-18 17:25:00,18.6,14.0,29.95,SW,230,3.0,12.0,82,0.00,,,0.00,weatherlink.com 1.10,2014-01-18 22:25:00,
2014-01-18 17:40:00,18.5,14.0,29.95,WNW,290,4.0,10.0,83,0.00,,,0.00,weatherlink.com 1.10,2014-01-18 22:40:00,
2014-01-18 17:55:00,18.6,14.0,29.95,West,280,6.0,12.0,83,0.00,,,0.00,weatherlink.com 1.10,2014-01-18 22:55:00,
2014-01-18 18:10:00,18.6,14.0,29.95,SSW,211,4.0,12.0,82,0.00,,,0.00,weatherlink.com 1.10,2014-01-18 23:10:00,
2014-01-18 18:25:00,18.4,14.0,29.95,WSW,257,4.0,11.0,81,0.00,,,0.00,weatherlink.com 1.10,2014-01-18 23:25:00,
2014-01-18 18:40:00,18.3,13.0,29.95,West,269,1.0,12.0,81,0.00,,,0.00,weatherlink.com 1.10,2014-01-18 23:40:00,
2014-01-18 18:55:00,17.9,13.0,29.95,West,262,1.0,12.0,80,0.00,,,0.00,weatherlink.com 1.10,2014-01-18 23:55:00,
2014-01-18 19:10:00,17.7,13.0,29.95,SSW,193,6.0,14.0,80,0.00,,,0.00,weatherlink.com 1.10,2014-01-19 00:10:00,
2014-01-18 19:25:00,17.6,13.0,29.95,West,279,4.0,8.0,81,0.00,,,0.00,weatherlink.com 1.10,2014-01-19 00:25:00,
2014-01-18 19:40:00,17.7,13.0,29.95,South,176,2.0,7.0,81,0.00,,,0.00,weatherlink.com 1.10,2014-01-19 00:40:00,
2014-01-18 19:55:00,18.0,13.0,29.94,West,262,3.0,9.0,82,0.00,,,0.00,weatherlink.com 1.10,2014-01-19 00:55:00,
2014-01-18 20:10:00,18.2,14.0,29.94,West,264,4.0,7.0,82,0.00,,,0.00,weatherlink.com 1.10,2014-01-19 01:10:00,
2014-01-18 20:25:00,18.4,14.0,29.93,West,260,2.0,5.0,82,0.00,,,0.00,weatherlink.com 1.10,2014-01-19 01:25:00,
2014-01-18 20:40:00,18.5,14.0,29.93,SW,236,3.0,4.0,82,0.00,,,0.00,weatherlink.com 1.10,2014-01-19 01:40:00,
2014-01-18 20:55:00,18.6,14.0,29.93,SW,224,5.0,7.0,82,0.00,,,0.00,weatherlink.com 1.10,2014-01-19 01:55:00,
2014-01-18 21:10:00,18.8,14.0,29.93,West,269,0.0,10.0,82,0.00,,,0.00,weatherlink.com 1.10,2014-01-19 02:10:00,
2014-01-18 21:25:00,18.8,14.0,29.92,WSW,246,0.0,8.0,82,0.00,,,0.00,weatherlink.com 1.10,2014-01-19 02:25:00,
2014-01-18 21:40:00,18.9,14.0,29.92,WNW,282,3.0,8.0,82,0.00,,,0.00,weatherlink.com 1.10,2014-01-19 02:40:00,
2014-01-18 21:55:00,19.0,14.0,29.91,WNW,283,1.0,7.0,82,0.00,,,0.00,weatherlink.com 1.10,2014-01-19 02:55:00,
2014-01-18 22:10:00,19.2,15.0,29.91,WSW,249,3.0,7.0,82,0.00,,,0.00,weatherlink.com 1.10,2014-01-19 03:10:00,
2014-01-18 22:25:00,19.2,15.0,29.91,WSW,256,2.0,5.0,82,0.00,,,0.00,weatherlink.com 1.10,2014-01-19 03:25:00,
2014-01-18 22:40:00,18.9,13.0,29.91,WSW,240,0.0,12.0,79,0.00,,,0.00,weatherlink.com 1.10,2014-01-19 03:40:00,
2014-01-18 22:55:00,18.9,13.0,29.90,SW,219,1.0,14.0,79,0.00,,,0.00,weatherlink.com 1.10,2014-01-19 03:55:00,
2014-01-18 23:10:00,18.5,13.0,29.90,SSW,208,4.0,8.0,78,0.00,,,0.00,weatherlink.com 1.10,2014-01-19 04:10:00,
2014-01-18 23:26:00,18.2,12.0,29.88,SW,219,1.0,9.0,77,0.00,,,0.00,weatherlink.com 1.10,2014-01-19 04:26:00,
2014-01-18 23:40:00,18.0,12.0,29.88,West,277,4.0,9.0,77,0.00,,,0.00,weatherlink.com 1.10,2014-01-19 04:40:00,
2014-01-18 23:55:00,17.8,12.0,29.88,WSW,242,0.0,9.0,77,0.00,,,0.00,weatherlink.com 1.10,2014-01-19 04:55:00,